Regional Weather Roundup
Issued by NWS Upton, NY

Current Version | Previous Version | Text Only | Print | Product List | Glossary On
Versions: 1 2 3 4 5 6 7 8 9 10 11 12 13 14 15 16 17 18 19 20 21 22 23 24 25 26 27 28 29 30 31 32 33 34 35
000
ASUS41 KOKX 190908
RWROKX

REGIONAL WEATHER ROUNDUP
NATIONAL WEATHER SERVICE NEW YORK NY
400 AM EST SUN NOV 19 2017

NOTE: "FAIR" INDICATES FEW OR NO CLOUDS BELOW 12,000 FEET WITH NO
SIGNIFICANT WEATHER AND/OR OBSTRUCTIONS TO VISIBILITY.

NYZ071-072-176-178-NJZ106-104-191000-
NEW YORK CITY METRO AREA

CITY           SKY/WX    TMP DP  RH WIND       PRES   REMARKS
Central Park   NOT AVBL
Bronx Bot Gard   N/A     57  52  82 S15       29.29F
LaGuardia APRT LGT RAIN  59  54  83 SW17G28   29.27F
Kennedy INTL   LGT RAIN  57  56  96 SW22      29.31F
Breezy Point     N/A     55 N/A N/A SW17G29     N/A
Newark/Liberty RAIN      58  55  90 SW22G29   29.28F
Teterboro      LGT RAIN  58  54  86 S16G31    29.26F
$$

NYZ177-179-078>081-191000-
LONG ISLAND NEW YORK

CITY           SKY/WX    TMP DP  RH WIND       PRES   REMARKS
Jones Beach      N/A     57 N/A N/A SW13G23     N/A
Matinecock PT    N/A     57 N/A N/A SW17G24     N/A
Farmingdale    CLOUDY    58  55  90 SW18G28   29.30F
MacArthur/ISP  LGT RAIN  58  57  97 SW17G36   29.30F
Shirley        LGT RAIN  59  58  96 S21G32    29.33F FOG
Mt Sinai Harb    N/A    N/A N/A N/A S14G21      N/A
Westhampton    HVY RAIN  59  56  89 SW16G24   29.35F FOG
East Hampton   LGT RAIN  59  56  91 SW13G24   29.34F
Southold       NOT AVBL
Montauk        NOT AVBL
$$

NYZ052-065-067-191000-
HUDSON VALLEY

CITY           SKY/WX    TMP DP  RH WIND       PRES   REMARKS
White Plains   LGT RAIN  53  53 100 SW7       29.26F
Larchmont Harb   N/A     55 N/A N/A S21         N/A
Croton On Huds   N/A     55 N/A N/A S10         N/A
Newburgh       CLOUDY    52  50  93 CALM      29.23F
Montgomery     LGT RAIN  43  42  97 S3        29.19F FOG
Poughkeepsie   LGT RAIN  52  49  89 SE3       29.20F
Albany         LGT RAIN  49  45  86 S18G29    29.15F
$$

NJZ001-105-106-008-010-013-015-019>022-104-191000-
NEW JERSEY

CITY           SKY/WX    TMP DP  RH WIND       PRES   REMARKS
Newark/Liberty RAIN      58  55  90 SW22G29   29.28F
Teterboro      LGT RAIN  58  54  86 S16G31    29.26F
Caldwell       LGT RAIN  56  55  97 VRB6G17   29.26F
Somerville     LGT RAIN  57  56  96 S6G18     29.24F
Linden         RAIN      58  54  87 W7G16     29.28F
Perth Amboy      N/A     57 N/A N/A SW20G26     N/A
Sussex         CLOUDY    50  49  96 SW6       29.21F
Andover        NOT AVBL
Trenton        LGT RAIN  58  56  93 SW14G24   29.27F
Millville      LGT RAIN  61  57  87 S8        29.33F
Atlantic City  LGT RAIN  58  57  97 S9        29.34F
Wrightstown    LGT RAIN  57  55  94 SW14G24   29.27F
Toms River     RAIN      57  56  96 SW10      29.32F
Belmar         LGT RAIN  58  56  93 S13G21    29.32F
$$

PAZ047>061-062-071-191000-
EASTERN PENNSYLVANIA

CITY           SKY/WX    TMP DP  RH WIND       PRES   REMARKS
Philadelphia   LGT RAIN  59  55  87 S15       29.29F
Allentown      LGT RAIN  57  52  83 SW13      29.23S
Scranton       LGT RAIN  56  51  84 S13G25    29.14F
$$

CTZ002-004>006-009-010-012-RIZ004-006-007-MAZ004-011-015-191000-
SOUTHERN NEW ENGLAND
 IN CT

CITY           SKY/WX    TMP DP  RH WIND       PRES   REMARKS
Bradley INTL   LGT RAIN  54  53  97 S13       29.26F
Hartford       LGT RAIN  57  54  89 S9        29.27F
Danbury        LGT RAIN  56  52  86 S10G24    29.26F
Wtrbury/Oxford LGT RAIN  54  52  93 SW9G20    29.28F
Norwalk Harbor   N/A     57 N/A N/A S18         N/A
Bridgeport     LGT RAIN  58  54  86 SW21G28   29.28F
Meriden        LGT RAIN  56  54  93 S15G21    29.27F
New Haven      LGT RAIN  58  54  86 S15G23    29.29F
Chester        RAIN      57  55  94 SW18G29   29.31F
Groton         LGT RAIN  60  56  86 SW21G26   29.32F
Wilimantic     RAIN      59  55  87 S13G26    29.30F

 IN RI

CITY           SKY/WX    TMP DP  RH WIND       PRES   REMARKS
Providence     CLOUDY    62  57  83 SW23G40   29.34F
Block Island   CLOUDY    62  57  83 SW26G37   29.34F
Westerly       CLOUDY    62  58  86 SW15G29   29.34F
 IN MA

CITY           SKY/WX    TMP DP  RH WIND       PRES   REMARKS
Boston         CLOUDY    56  54  93 S12       29.30F
Worcester      LGT RAIN  53  50  89 S16       29.28F
Westfield      LGT RAIN  40  40 100 W3        29.25F FOG
Provincetown   CLOUDY    58  54  86 S20G26    29.36F
Nantucket      CLOUDY    57  55  93 S18       29.43F
$$

ANZ330-335-338-340-345-350-353-355-191000-
COASTAL MARINE OBSERVATIONS


STATION/POSITION TIME  SKY/WX   TEMP    WIND        PRES    VSBY  WAVE
                                AIR SEA DIR/SP/G                  HT/PER
                 (UTC)          (F)     (DEG/KT/KT) (MB)    (MI)  (FT/S)
NY HARB ENTRANCE 0750            60 59  210/ 27/ 35  992.2          9/ 8
20 S FIRE ISLAND 0750            61 58  210/ 27/ 35  993.8         13/ 9
GREAT SOUTH BAY  0830            55 46  220/ 23/ 31   N/A
HUDSON CANYON    0750            65 60  210/ 27/ 33  996.0         15/ 9
KINGS POINT      NOT AVBL
EXECUTION ROCKS  0830            56     170/ 14/ 17   N/A
WESTERN LI SOUND 0749            58     200/ 16/ 23   N/A           1/ 2
CENTRAL LI SOUND 0815            60     210/ 21/ 29   N/A           4
ROBBINS REEF     NOT AVBL
$$


>>>>>>>>>>>>>>>>>>>>>>>>>>>> KEY <<<<<<<<<<<<<<<<<<<<<<<<<<<
>                                                          <
>     SKY/WX - Sky Condition/Present Weather               <
>     TMP    - Temperature in Fahrenheit                   <
>     DP     - Dew Point in Fahrenheit                     <
>     RH     - Relative Humidity in Percent                <
>     WIND   - Direction (from) and Speed in MPH           <
>     PRES   - Mean Sea Level Pressure (inches of Hg)      <
>     WCI    - Wind Chill Index                            <
>     VSB    - VISIBILITY IN MILES                         <
>     HX     - HEAT INDEX                                  <
>     TC     - TEMPERATURE IN CELSIUS                      <
>     VRB    - VARIABLE WIND DIRECTION                     <
>                                                          <
>>>>>>>>>>>>>>>>>>>>>>>>>>>> KEY <<<<<<<<<<<<<<<<<<<<<<<<<<<




USA.gov is the U.S. government's official web portal to all federal, state and local government web resources and services.